TimeMST,TemperatureF,Dew PointF,Humidity,Sea Level PressureIn,VisibilityMPH,Wind Direction,Wind SpeedMPH,Gust SpeedMPH,PrecipitationIn,Events,Conditions,WindDirDegrees,DateUTC
12:15 AM,55.4,28.4,36,30.05,10.0,SSW,3.5,-,N/A,,Clear,200,2012-11-07 07:15:00
12:35 AM,50.0,28.4,43,30.05,10.0,NE,4.6,-,N/A,,Clear,50,2012-11-07 07:35:00
12:55 AM,53.6,28.4,38,30.04,10.0,WSW,11.5,17.3,N/A,,Clear,240,2012-11-07 07:55:00
1:15 AM,55.4,26.6,33,30.03,10.0,WSW,15.0,23.0,N/A,,Clear,250,2012-11-07 08:15:00
1:55 AM,55.4,26.6,33,30.01,10.0,WSW,13.8,-,N/A,,Clear,240,2012-11-07 08:55:00
2:15 AM,55.4,26.6,33,30.01,10.0,WSW,15.0,20.7,N/A,,Clear,250,2012-11-07 09:15:00
2:35 AM,57.2,24.8,29,30.01,10.0,WSW,13.8,-,N/A,,Clear,250,2012-11-07 09:35:00
2:55 AM,57.2,24.8,29,30.00,10.0,West,11.5,-,N/A,,Clear,260,2012-11-07 09:55:00
3:15 AM,57.2,23.0,27,29.99,10.0,WSW,9.2,-,N/A,,Clear,240,2012-11-07 10:15:00
3:35 AM,55.4,23.0,29,29.99,10.0,West,5.8,-,N/A,,Clear,270,2012-11-07 10:35:00
3:55 AM,57.2,24.8,29,29.98,10.0,West,5.8,-,N/A,,Clear,260,2012-11-07 10:55:00
4:15 AM,55.4,23.0,29,29.98,10.0,SSW,8.1,-,N/A,,Clear,210,2012-11-07 11:15:00
4:35 AM,51.8,23.0,33,29.97,10.0,Calm,Calm,-,N/A,,Clear,0,2012-11-07 11:35:00
4:55 AM,46.4,24.8,43,29.97,10.0,SW,9.2,-,N/A,,Clear,230,2012-11-07 11:55:00
5:15 AM,44.6,24.8,46,29.98,10.0,SE,5.8,-,N/A,,Clear,130,2012-11-07 12:15:00
5:36 AM,46.4,24.8,43,29.97,10.0,SSW,4.6,-,N/A,,Clear,200,2012-11-07 12:36:00
5:55 AM,46.4,23.0,40,29.97,10.0,South,5.8,-,N/A,,Clear,170,2012-11-07 12:55:00
6:15 AM,50.0,24.8,37,29.97,10.0,SW,4.6,-,N/A,,Clear,220,2012-11-07 13:15:00
6:35 AM,46.4,23.0,40,29.96,10.0,Calm,Calm,-,N/A,,Clear,0,2012-11-07 13:35:00
7:15 AM,55.4,26.6,33,29.96,10.0,SW,5.8,-,N/A,,Clear,220,2012-11-07 14:15:00
7:35 AM,50.0,24.8,37,29.96,10.0,Calm,Calm,-,N/A,,Clear,0,2012-11-07 14:35:00
7:55 AM,55.4,26.6,33,29.97,10.0,SW,9.2,-,N/A,,Clear,230,2012-11-07 14:55:00
8:15 AM,57.2,26.6,31,29.97,10.0,SSW,5.8,-,N/A,,Clear,200,2012-11-07 15:15:00
8:35 AM,59.0,26.6,29,29.96,10.0,Calm,Calm,-,N/A,,Clear,0,2012-11-07 15:35:00
8:55 AM,59.0,26.6,29,29.96,10.0,SSW,4.6,-,N/A,,Clear,200,2012-11-07 15:55:00
9:15 AM,60.8,26.6,27,29.95,10.0,SW,8.1,-,N/A,,Clear,220,2012-11-07 16:15:00
9:35 AM,60.8,26.6,27,29.94,10.0,SW,8.1,-,N/A,,Clear,230,2012-11-07 16:35:00
9:55 AM,62.6,26.6,26,29.93,10.0,WSW,6.9,-,N/A,,Clear,250,2012-11-07 16:55:00
10:15 AM,62.6,26.6,26,29.91,10.0,SSW,11.5,-,N/A,,Clear,210,2012-11-07 17:15:00
10:35 AM,64.4,26.6,24,29.91,10.0,South,8.1,-,N/A,,Clear,190,2012-11-07 17:35:00
10:55 AM,62.6,26.6,26,29.89,10.0,SSE,3.5,-,N/A,,Clear,150,2012-11-07 17:55:00
11:15 AM,64.4,26.6,24,29.88,10.0,WSW,8.1,-,N/A,,Clear,240,2012-11-07 18:15:00
11:35 AM,66.2,26.6,23,29.86,10.0,West,10.4,16.1,N/A,,Clear,260,2012-11-07 18:35:00
11:55 AM,66.2,26.6,23,29.85,10.0,WSW,11.5,-,N/A,,Clear,250,2012-11-07 18:55:00
12:16 PM,66.2,26.6,23,29.84,10.0,WSW,11.5,17.3,N/A,,Clear,250,2012-11-07 19:16:00
12:35 PM,68.0,26.6,21,29.83,10.0,WSW,12.7,18.4,N/A,,Clear,250,2012-11-07 19:35:00
1:35 PM,69.8,24.8,18,29.81,10.0,West,12.7,21.9,N/A,,Clear,260,2012-11-07 20:35:00
1:55 PM,68.0,24.8,20,29.81,10.0,West,16.1,23.0,N/A,,Clear,270,2012-11-07 20:55:00
2:15 PM,68.0,24.8,20,29.81,10.0,West,11.5,23.0,N/A,,Clear,260,2012-11-07 21:15:00
2:35 PM,68.0,24.8,20,29.81,10.0,West,16.1,23.0,N/A,,Clear,260,2012-11-07 21:35:00
3:15 PM,66.2,26.6,23,29.80,10.0,WSW,9.2,24.2,N/A,,Clear,250,2012-11-07 22:15:00
3:35 PM,66.2,26.6,23,29.80,10.0,WSW,15.0,18.4,N/A,,Clear,250,2012-11-07 22:35:00
3:55 PM,66.2,26.6,23,29.81,10.0,WSW,8.1,18.4,N/A,,Clear,250,2012-11-07 22:55:00
4:15 PM,64.4,26.6,24,29.81,10.0,WSW,10.4,19.6,N/A,,Clear,250,2012-11-07 23:15:00
4:35 PM,64.4,26.6,24,29.81,10.0,West,12.7,-,N/A,,Clear,270,2012-11-07 23:35:00
4:55 PM,62.6,26.6,26,29.81,10.0,West,11.5,19.6,N/A,,Clear,260,2012-11-07 23:55:00
5:15 PM,62.6,26.6,26,29.81,10.0,West,12.7,18.4,N/A,,Clear,260,2012-11-08 00:15:00
5:35 PM,60.8,26.6,27,29.82,10.0,West,8.1,-,N/A,,Clear,260,2012-11-08 00:35:00
5:55 PM,60.8,26.6,27,29.82,10.0,West,6.9,-,N/A,,Clear,260,2012-11-08 00:55:00
6:15 PM,60.8,26.6,27,29.83,10.0,WSW,5.8,-,N/A,,Clear,250,2012-11-08 01:15:00
6:35 PM,59.0,26.6,29,29.84,10.0,Calm,Calm,-,N/A,,Clear,0,2012-11-08 01:35:00
6:55 PM,53.6,24.8,33,29.84,10.0,Calm,Calm,-,N/A,,Clear,0,2012-11-08 01:55:00
7:15 PM,57.2,26.6,31,29.84,10.0,East,3.5,-,N/A,,Clear,90,2012-11-08 02:15:00
7:35 PM,57.2,24.8,29,29.84,10.0,Calm,Calm,-,N/A,,Clear,0,2012-11-08 02:35:00
7:55 PM,57.2,24.8,29,29.84,10.0,NW,3.5,-,N/A,,Clear,310,2012-11-08 02:55:00
8:15 PM,57.2,26.6,31,29.84,10.0,Calm,Calm,-,N/A,,Clear,0,2012-11-08 03:15:00
8:35 PM,48.2,23.0,37,29.84,10.0,SE,6.9,-,N/A,,Clear,140,2012-11-08 03:35:00
8:55 PM,50.0,24.8,37,29.85,10.0,Calm,Calm,-,N/A,,Partly Cloudy,0,2012-11-08 03:55:00
9:15 PM,51.8,24.8,35,29.86,10.0,South,5.8,-,N/A,,Scattered Clouds,170,2012-11-08 04:15:00
9:35 PM,50.0,24.8,37,29.86,10.0,South,5.8,-,N/A,,Overcast,180,2012-11-08 04:35:00
9:55 PM,51.8,33.8,50,29.88,10.0,NNE,10.4,-,N/A,,Overcast,20,2012-11-08 04:55:00
10:15 PM,50.0,35.6,58,29.89,10.0,NNW,8.1,-,N/A,,Mostly Cloudy,340,2012-11-08 05:15:00
10:35 PM,48.2,33.8,58,29.89,10.0,NNW,8.1,-,N/A,,Scattered Clouds,330,2012-11-08 05:35:00
10:55 PM,46.4,33.8,62,29.90,10.0,North,4.6,-,N/A,,Partly Cloudy,10,2012-11-08 05:55:00
11:15 PM,42.8,35.6,76,29.89,10.0,NNE,6.9,-,N/A,,Clear,20,2012-11-08 06:15:00
11:35 PM,42.8,35.6,76,29.90,10.0,North,5.8,-,N/A,,Clear,350,2012-11-08 06:35:00
11:55 PM,44.6,35.6,71,29.90,10.0,NW,4.6,-,N/A,,Partly Cloudy,310,2012-11-08 06:55:00